Regional Weather Roundup
Issued by NWS

Home | Current Version | Previous Version | Graphics & Text | Print | Product List | Glossary On
Versions: 1 2 3 4 5 6 7 8 9 10 11 12 13 14 15 16 17 18 19 20 21 22 23 24 25 26 27 28 29 30 31 32 33 34 35 36 37 38 39 40 41 42 43 44 45 46 47 48
000
ASUS43 KDMX 211207
RWRIA

WEATHER ROUNDUP FOR IOWA
NATIONAL WEATHER SERVICE DES MOINES IA
700 AM CDT THU AUG 21 2014

NOTE: "FAIR" INDICATES FEW OR NO CLOUDS BELOW 12,000 FEET WITH NO
SIGNIFICANT WEATHER AND/OR OBSTRUCTIONS TO VISIBILITY.

* - THESE STATIONS ARE NOT NWS STATIONS...THUS NOT UNDER NWS
QUALITY CONTROL.  THEY ALSO DO NOT REPORT WEATHER SUCH
AS PRECIPITATION OR FOG.

IAZ001>003-012>014-020>022-031>034-043>046-211300-
   NORTHWEST IOWA

CITY           SKY/WX    TMP DP  RH WIND       PRES   REMARKS
CARROLL *      PTCLDY    73  70  88 SW10G16   29.80R
CHEROKEE *     PTCLDY    74  71  90 S10       29.77R
DENISON *      CLEAR     75  70  83 S10       29.78R
LE MARS *      PTCLDY    75  70  83 S14       29.77R
ORANGE CITY *  PTCLDY    75  70  83 SW7       29.77R
SHELDON *      PTCLDY    73  72  94 VRB7      29.76R
SIOUX CITY     CLOUDY    76  67  73 S5        29.77R
6HR MIN TEMP:  76; 6HR MAX TEMP:  78;

SPENCER        MOCLDY    75  69  81 SW8       29.78R
6HR MIN TEMP:  72; 6HR MAX TEMP:  76; 6HR PCP:  0.01;

STORM LAKE *   MOCLDY    75  73  94 SW14G22   29.81R
$$

IAZ055>058-069>071-079>083-090>094-211300-
   SOUTHWEST IOWA

CITY           SKY/WX    TMP DP  RH WIND       PRES   REMARKS
ATLANTIC *     PTCLDY    75  70  83 S7        29.83R
AUDUBON *      PTCLDY    77  72  83 S9        29.84R
CLARINDA *     CLEAR     75  70  83 S7        29.87R
COUNCIL BLFS * CLEAR     77  70  78 SW9       29.82R
CRESTON *      PTCLDY    72  70  94 S8        29.87R
HARLAN  *      PTCLDY    73  70  88 S8        29.85R
LAMONI         PTCLDY    72  68  87 S10       29.87R
6HR MIN TEMP:  72; 6HR MAX TEMP:  78;

RED OAK *      PTCLDY    73  72  94 S7        29.84R
SHENANDOAH *     N/A     73  72  94 SW5       29.85R
$$

IAZ047>049-059>061-072>074-084-211300-
   CENTRAL IOWA

CITY           SKY/WX    TMP DP  RH WIND       PRES   REMARKS
AMES           MOCLDY    73  70  90 S5        29.81R
6HR MIN TEMP:  70; 6HR MAX TEMP:  74;

ANKENY *       MOCLDY    77  70  78 S9        29.82R
CHARITON *     PTCLDY    73  70  88 S9        29.86R
DES MOINES     CLOUDY    77  69  76 SW9       29.82R
6HR MIN TEMP:  76; 6HR MAX TEMP:  78;

GRINNELL*      MOCLDY    73  70  88 S6        29.86R
KNOXVILLE *    MOCLDY    75  68  78 S12G18    29.83R
MARSHALLTOWN   CLOUDY    74  70  87 S9        29.82R
6HR MIN TEMP:  71; 6HR MAX TEMP:  74; 6HR PCP:  0.01;

PELLA *        PTCLDY    74  69  85 S6        29.85S
PERRY *          N/A     73  70  88 SW12      29.81R
$$

IAZ004>006-015-016-023>025-035-036-211300-
   NORTH CENTRAL IOWA

CITY           SKY/WX    TMP DP  RH WIND       PRES   REMARKS
ALGONA *       DRIZZLE   73  72  94 NE3       29.81R
CLARION *      MOCLDY    73  72  94 S9        29.80R
ESTHERVILLE    CLOUDY    71  69  93 E5        29.79R
6HR MIN TEMP:  69; 6HR MAX TEMP:  75;

FORT DODGE *   CLOUDY    73  70  88 SW9       29.80R
MASON CITY     TSTM      72  70  93 S5        29.83R
6HR MIN TEMP:  69; 6HR MAX TEMP:  72; 6HR PCP: TRACE;

FOREST CITY *  LGT RAIN  72  72 100 NE6       29.83R
IOWA FALLS *     N/A     73  69  90 S8        29.82R
$$

IAZ007>011-017>019-026>030-037>042-050>054-066-211300-
   NORTHEAST IOWA

CITY           SKY/WX    TMP DP  RH WIND       PRES   REMARKS
CEDAR RAPIDS   CLOUDY    72  72 100 SE5       29.86R
6HR MIN TEMP:  69; 6HR MAX TEMP:  73;

CHARLES CITY * PTCLDY    72  70  94 SE9       29.83F
CLINTON *      MOCLDY    72  68  88 SE3       29.95R THUNDER
DECORAH *      LGT RAIN  70  70 100 SE7       29.88S
DUBUQUE        LGT RAIN  70  68  93 SE8       29.93R FOG
6HR MIN TEMP:  70; 6HR MAX TEMP:  71; 6HR PCP:  0.01;

MONTICELLO *   CLOUDY    72  72 100 E5        29.90R FOG
OELWEIN *      PTCLDY    72  70  94 SE7       29.87S
WATERLOO       CLOUDY    71  70  96 SE7       29.82S FOG
6HR MIN TEMP:  70; 6HR MAX TEMP:  72; 6HR PCP:  0.01;

$$

IAZ064-065-067-068-078-211300-
   EAST CENTRAL IOWA

CITY           SKY/WX    TMP DP  RH WIND       PRES   REMARKS
DAVENPORT      MOCLDY    72  70  93 S5        29.91R
6HR MIN TEMP:  70; 6HR MAX TEMP:  72;

IOWA CITY      MOCLDY    72  71  97 S5        29.88R
6HR MIN TEMP:  70; 6HR MAX TEMP:  73;

MT. PLEASANT * PTCLDY    72  69  91 S6        29.90R
MUSCATINE *    CLEAR     73  70  88 SE5       29.88R
QUAD CITIES    MOCLDY    73  69  87 CALM      29.90R
6HR MIN TEMP:  69; 6HR MAX TEMP:  73;

$$

IAZ062-063-075>077-085>089-095>099-211300-
   SOUTHEAST IOWA

CITY           SKY/WX    TMP DP  RH WIND       PRES   REMARKS
BURLINGTON     CLEAR     73  70  90 SW7       29.90R
6HR MIN TEMP:  72; 6HR MAX TEMP:  76; 6HR PCP: TRACE;

FAIRFIELD *    PTCLDY    72  68  88 SW6       29.88R
FORT MADISON * CLEAR     75  72  88 SW8       29.91R
KEOKUK *       CLEAR     73  70  88 SW9       29.90R
OSKALOOSA *      N/A     73  70  91 SW6       29.87R
CENTERVILLE *  CLEAR     73  68  83 S8        29.89R
OTTUMWA        PTCLDY    73  68  84 S8        29.86R
6HR MIN TEMP:  73; 6HR MAX TEMP:  76;

WASHINGTON *   PTCLDY    72  72 100 S7        29.88R
$$

ABBREVIATIONS USED IN REMARKS
   TC - TEMPERATURES IN CELSIUS
  WCI - WIND CHILL INDEX
   HX - HEAT INDEX
  VSB - VISIBILITY
$$




USA.gov is the U.S. government's official web portal to all federal, state and local government web resources and services.